Home   Weather   Rainy River   Past weeks

Flag for Canada Past Weather in Rainy River, Ontario, Canada — Yesterday and Last 2 Weeks

Now
63 °F

Overcast.


Feels Like: 63 °F
Forecast: 49 / 64 °F
Wind: 12 mph from Southeast

Location: Baudette International Airport

Current Time: Sep 24, 2016 at 9:15:41 PM

Latest Report: Sep 24, 2016 at 8:53 PM


Visibility: 10 mi

Pressure: 29.93 "Hg

Humidity: 90%

Dew Point: 60 °F

Location of Rainy RiverLocation

Past Weather in Rainy River — Graph

°F

Rainy River Temperature Yesterday

Maximum temperature yesterday: 65 °F (at 12:53 PM)
Minimum temperature yesterday: 43 °F (at 4:53 AM)
Average temperature yesterday: 54 °F

High & Low Weather Summary for the Past Weeks

 TemperatureHumidityPressure
High75 °F (Sep 11, 3:53 PM)100% (Sep 17, 12:02 AM)30.32 "Hg (Sep 17, 12:02 AM)
Low35 °F (Sep 14, 5:53 AM)35% (Sep 19, 4:53 PM)29.57 "Hg (Sep 18, 3:53 PM)
Average57 °F77%29.99 "Hg
* Reported Sep 9 8:53 PM — Sep 24 8:01 PM, Rainy River, Weather by CustomWeather, © 2016

Note: Actual official high and low records may vary slightly from our data, if they occured in-between our weather recording intervals... More about our weather records

Advertising

Rainy River Weather History for the Previous 24 Hours

Scroll right to see more
 ConditionsComfort  
Time TempWeatherWind HumidityBarometerVisibility
8:01 PM
Sat, Sep 24
63 °FOvercast.14 mph90%29.94 "Hg10 mi
6:53 PM65 °FOvercast.16 mph81%29.94 "Hg10 mi
5:53 PM68 °FPassing clouds.14 mph76%29.91 "Hg10 mi
4:53 PM71 °FPassing clouds.17 mph71%29.91 "Hg10 mi
3:53 PM67 °FPartly sunny.13 mph79%29.95 "Hg10 mi
2:53 PM65 °FOvercast.12 mph85%29.97 "Hg10 mi
1:53 PM64 °FOvercast.12 mph87%29.99 "Hg10 mi
12:53 PM63 °FOvercast.12 mph90%30.01 "Hg10 mi
11:53 AM62 °FLow clouds.12 mph90%30.01 "Hg10 mi
10:53 AM60 °FFog.12 mph93%30.02 "Hg6 mi
10:02 AM57 °FFog.13 mph96%30.01 "Hg3 mi
9:53 AM57 °FFog.10 mph96%30.02 "Hg2 mi
8:53 AM56 °FFog.14 mph97%30.03 "Hg3 mi
7:53 AM55 °FFog.13 mph96%30.06 "Hg3 mi
6:53 AM54 °FFog.10 mph97%30.07 "Hg6 mi
5:53 AM54 °FLow clouds.9 mph93%30.08 "Hg10 mi
4:53 AM53 °FOvercast.9 mph93%30.07 "Hg10 mi
3:53 AM53 °FMostly cloudy.16 mph89%30.09 "Hg10 mi
2:53 AM52 °FMostly cloudy.14 mph93%30.11 "Hg10 mi
1:53 AM54 °FLight rain. Overcast.13 mph80%30.13 "Hg10 mi
12:53 AM55 °FMostly cloudy.18 mph74%30.11 "Hg10 mi
11:53 PM
Fri, Sep 23
56 °FOvercast.14 mph72%30.11 "Hg10 mi
10:53 PM58 °FOvercast.16 mph67%30.11 "Hg10 mi
9:53 PM59 °FOvercast.12 mph64%30.12 "Hg10 mi
Weather by CustomWeather, © 2016

See weather overviewHow to use our weather pages